Terminal Aerodrome Forecast
Issued by NWS Atlanta, GA

Home | Current Version | Previous Version | Text Only | Print | Product List | Glossary On
Versions: 1 2 3 4 5 6 7 8 9 10 11 12 13 14 15 16 17 18 19 20 21 22 23 24 25 26 27 28 29 30 31 32 33 34 35 36 37
000
FTUS42 KFFC 230331 AAC
TAFATL
TAF AMD
KATL 230331Z 2304/2406 12011G17KT P6SM OVC007
     FM230600 12010KT P6SM VCSH OVC007
     FM231000 14009KT 5SM SHRA OVC010
      TEMPO 2310/2314 VRB10G20KT 3SM TSRA BKN010CB
     FM231400 21012G22KT 3SM SHRA OVC010
     FM231700 25010KT P6SM VCSH SCT040
     FM240000 29008KT P6SM SCT250=

USA.gov is the U.S. government's official web portal to all federal, state and local government web resources and services.